Weather in Valgussy

Russia / Ulyanovsk Oblast     54°03′30″N   46°12′01″E
temp.,
°C
wind,
m/s
gust,
m/s
humid.,
%
clouds,
%
prec.,
mm/h
press.,
hPa
HPBL,
m
18 april, sun
sun1801:00+7ene411620 0.0 1019289
04:00+5ene247276 0.0 102076
07:00+5ene296699 0.0 1020245
10:00+9ene4751100 0.0 1020528
13:00+12ne2346100 0.0 1020929
16:00+12nne2544100 0.3 10201342
19:00+11ene4849100 0.0 1020337
22:00+8ene1362100 0.1 102194
19 april, mon
mon1901:00+7ene51274100 0.1 1022538
04:00+5ene51177100 0.1 1022449
07:00+4ene51368100 0.0 1023508
10:00+6ene6961100 0.0 1023720
13:00+8ene795099 0.0 10231043
16:00+9e6952100 0.0 10231451
19:00+7e61162100 0.0 1023960
22:00+4e6127258 0.0 1025765
20 april, tue
tue2001:00+4ese5137064 0.0 1025836
04:00+5ese51265100 0.0 1025899
07:00+4ese61265100 0.0 1026891
10:00+5ese7125193 0.0 1026965
13:00+9ese7104152 0.0 10261332
16:00+10ese7104079 0.0 10251505
19:00+8ese71347100 0.0 10231261
22:00+6ese71548100 0.0 10221069
21 april, wed
wed2101:00+5se81749100 0.0 1020966
04:00+3se91972100 3.1 1020905
07:00+2se92186100 2.4 1018892
10:00+2se91990100 3.9 1017890
13:00+2se91891100 0.1 1017847
16:00+2se81794100 0.2 1018755
19:00+2sse71594100 0.2 1018700
22:00+3sse51397100 0.3 1020635
22 april, thu
thu2201:00+3s41098100 0.1 1021423
04:00+4s3798100 0.1 1022292
07:00+4sse2696100 0.0 1023172
10:00+8s357558 0.0 1024701
13:00+11s456289 0.2 10241262
16:00+13ssw355776 0.4 10231358
19:00+10sse247784 0.5 1024109
22:00+6se39925 0.6 1025273